Location: ???
(35.5616°N, 139.7977°E)
Time: 04:01:53
(UTC+00:00)

Okean 2 Rocket - Visible Passes

Search period start: 19 February 2026 00:00
Search period end: 01 March 2026 00:00
Orbit: 611 x 635 km, 82.5° (Epoch: 18 February)

Date Brightness Start Highest point End Pass type
(mag) Time Alt. Az. Time Alt. Az. Time Alt. Az.
19 Feb 4.7 08:46:36 10° NNW 08:50:42 40° W 08:54:45 10° SSW visible
19 Feb 6.8 19:41:43 10° E 19:41:54 10° E 19:42:04 10° E visible
20 Feb 6.1 09:05:45 10° NW 09:08:57 20° W 09:12:09 10° SW visible
20 Feb 5.9 19:56:47 10° SE 20:00:04 20° E 20:03:20 10° NE visible
21 Feb 4.6 20:14:11 10° SSE 20:18:20 40° E 20:22:29 10° NNE visible
22 Feb 3.2 20:32:15 10° S 20:36:42 85° E 20:41:08 10° N visible
23 Feb 6.5 19:15:59 10° ESE 19:17:42 12° E 19:19:26 10° ENE visible
23 Feb 3.3 20:50:54 10° SSW 20:55:09 46° W 20:59:25 10° N visible
24 Feb 5.5 19:32:20 10° SE 19:35:54 24° E 19:39:26 10° NE visible
25 Feb 4.1 19:49:56 10° SSE 19:54:11 48° E 19:58:26 10° NNE visible
26 Feb 3.0 20:08:09 10° S 20:12:34 81° W 20:17:00 10° N visible
27 Feb 6.2 18:51:08 10° ESE 18:53:31 14° E 18:55:53 10° NE visible
27 Feb 3.5 20:26:55 10° SSW 20:31:03 38° W 20:35:11 10° N visible
28 Feb 5.1 19:07:57 10° SSE 19:11:44 28° E 19:15:29 10° NNE visible
28 Feb 4.4 20:46:24 10° WSW 20:49:38 20° WNW 20:52:52 10° NNW visible
